sat.trackr.live / text

‹ back to catalog

HULIANWANG DIGUI-52

NORAD 65109 · 2025-168D

PAYLOAD ACTIVE UNKNOWN

§ Identity

Operator
Country
PRC
Launch date
2025-08-04
Launch site
WSC
Launch vehicle
Mass (kg)
RCS (m²)

External: N2YO · Heavens-Above · Gunter

§ Orbital elements

Epoch: 2026-09-21T17:48:25.772544Z

Period
108.33 min
Inclination
50.0051°
Eccentricity
0.0009615
Mean motion
13.29327351 rev/d
Perigee alt
1,142.1 km
Apogee alt
1,156.5 km
Semi-major
7,527.4 km
B*
9.0240e-5
RAAN
339.4379°
Arg perigee
29.1034°
Mean anomaly
331.0372°
Rev number
5,553

§ Raw data

HULIANWANG DIGUI-521 65109U 25168D   26264.74196496 -.00000082  00000+0  90240-4 0  99982 65109  50.0051 339.4379 0009615  29.1034 331.0372 13.29327351 55535

JSON: /api/v1/satellites/65109 · /tle

For live sub-satellite position, see the globe view (requires WebGL).

§ Visibility from observer

Set your observer location to see the next 7 days of passes ≥ 10°. The values pass through the URL so the page stays shareable.

No JS? Fill the form by hand. The geolocation button needs JavaScript.